Wetterdaten: Dienstag, 13.11.2018
Datum Zeit Temp. A. Aussen2m Boden Feuchte A. Feuchte 2 Luftdruck Regen Wind Richtung Richtung Sonnenschein
13.11.2018 00:00 10,0 C 32,4 C 10,8 C 89 % 99 % 1016,8 hPa 0,0 l/m 3,0 km/h (1 Bft) S-SW 200 0 min
13.11.2018 00:05 9,9 C 32,4 C 10,8 C 89 % 99 % 1016,8 hPa 0,0 l/m 4,2 km/h (1 Bft) S 175 0 min
13.11.2018 00:10 9,9 C 32,4 C 10,8 C 89 % 99 % 1016,8 hPa 0,0 l/m 6,1 km/h (2 Bft) O-SO 120 0 min
13.11.2018 00:15 9,9 C 32,4 C 10,8 C 89 % 99 % 1016,8 hPa 0,0 l/m 4,8 km/h (1 Bft) S-SO 160 0 min
13.11.2018 00:20 9,9 C 32,4 C 10,8 C 89 % 99 % 1016,8 hPa 0,0 l/m 9,7 km/h (2 Bft) SO 140 0 min
13.11.2018 00:25 9,9 C 32,4 C 10,8 C 89 % 99 % 1016,8 hPa 0,0 l/m 9,1 km/h (2 Bft) S-SO 155 0 min
13.11.2018 00:30 9,8 C 32,4 C 10,8 C 89 % 99 % 1016,8 hPa 0,0 l/m 6,1 km/h (2 Bft) SO 140 0 min
13.11.2018 00:35 9,8 C 32,4 C 10,8 C 89 % 99 % 1016,8 hPa 0,0 l/m 7,3 km/h (2 Bft) S-SO 165 0 min
13.11.2018 00:40 9,8 C 32,4 C 10,8 C 89 % 99 % 1015,8 hPa 0,0 l/m 8,5 km/h (2 Bft) S-SO 155 0 min
13.11.2018 00:45 9,8 C 32,4 C 10,8 C 89 % 99 % 1015,8 hPa 0,0 l/m 8,5 km/h (2 Bft) S 175 0 min
13.11.2018 00:50 9,8 C 32,4 C 10,8 C 89 % 99 % 1015,8 hPa 0,0 l/m 4,8 km/h (1 Bft) S 180 0 min
13.11.2018 00:55 9,8 C 32,4 C 10,8 C 89 % 99 % 1016,8 hPa 0,0 l/m 2,4 km/h (1 Bft) S-SO 165 0 min
13.11.2018 01:00 9,8 C 32,4 C 10,8 C 89 % 99 % 1016,8 hPa 0,0 l/m 3,6 km/h (1 Bft) S-SO 165 0 min
13.11.2018 01:05 9,8 C 32,4 C 10,8 C 89 % 99 % 1016,8 hPa 0,0 l/m 6,1 km/h (2 Bft) SW 220 0 min
13.11.2018 01:10 9,8 C 32,4 C 10,8 C 89 % 99 % 1015,8 hPa 0,0 l/m 6,1 km/h (2 Bft) S-SO 160 0 min
13.11.2018 01:15 9,8 C 32,4 C 10,8 C 89 % 99 % 1015,8 hPa 0,0 l/m 7,9 km/h (2 Bft) SO 125 0 min
13.11.2018 01:20 9,8 C 32,4 C 10,8 C 89 % 99 % 1015,8 hPa 0,0 l/m 7,3 km/h (2 Bft) S 190 0 min
13.11.2018 01:25 9,8 C 32,4 C 10,8 C 89 % 99 % 1015,8 hPa 0,0 l/m 4,2 km/h (1 Bft) SO 135 0 min
13.11.2018 01:30 9,8 C 32,4 C 10,8 C 89 % 99 % 1015,8 hPa 0,0 l/m 5,4 km/h (2 Bft) S-SO 150 0 min
13.11.2018 01:35 9,8 C 32,4 C 10,8 C 89 % 99 % 1015,8 hPa 0,0 l/m 4,2 km/h (1 Bft) SO 135 0 min
13.11.2018 01:40 9,8 C 32,4 C 10,8 C 89 % 99 % 1015,8 hPa 0,0 l/m 4,2 km/h (1 Bft) S 185 0 min
13.11.2018 01:45 9,8 C 32,4 C 10,8 C 89 % 99 % 1015,8 hPa 0,0 l/m 4,8 km/h (1 Bft) S 170 0 min
13.11.2018 01:50 9,8 C 32,4 C 10,8 C 89 % 99 % 1015,8 hPa 0,0 l/m 3,0 km/h (1 Bft) S 180 0 min
13.11.2018 01:55 9,8 C 32,4 C 10,8 C 89 % 99 % 1015,8 hPa 0,0 l/m 3,0 km/h (1 Bft) S-SO 155 0 min
13.11.2018 02:00 9,8 C 32,4 C 10,8 C 89 % 99 % 1015,8 hPa 0,0 l/m 9,1 km/h (2 Bft) S 170 0 min
13.11.2018 02:05 9,8 C 32,4 C 10,8 C 89 % 99 % 1015,8 hPa 0,0 l/m 7,3 km/h (2 Bft) SO 140 0 min
13.11.2018 02:10 9,8 C 32,4 C 10,8 C 89 % 99 % 1015,8 hPa 0,0 l/m 7,3 km/h (2 Bft) S-SO 155 0 min
13.11.2018 02:15 9,8 C 32,4 C 10,8 C 89 % 99 % 1015,8 hPa 0,0 l/m 5,4 km/h (2 Bft) SO 130 0 min
13.11.2018 02:20 9,8 C 32,4 C 10,8 C 89 % 99 % 1015,8 hPa 0,0 l/m 5,4 km/h (2 Bft) S 180 0 min
13.11.2018 02:25 9,9 C 32,4 C 10,8 C 89 % 99 % 1015,8 hPa 0,0 l/m 5,4 km/h (2 Bft) S 180 0 min
13.11.2018 02:30 9,9 C 32,4 C 10,8 C 88 % 99 % 1015,8 hPa 0,0 l/m 7,3 km/h (2 Bft) S-SW 205 0 min
13.11.2018 02:35 9,9 C 32,4 C 10,8 C 88 % 99 % 1015,8 hPa 0,0 l/m 6,1 km/h (2 Bft) S 180 0 min
13.11.2018 02:40 9,9 C 32,4 C 10,8 C 88 % 99 % 1016,8 hPa 0,0 l/m 9,1 km/h (2 Bft) S 180 0 min
13.11.2018 02:45 9,9 C 32,4 C 10,8 C 88 % 99 % 1016,8 hPa 0,0 l/m 7,3 km/h (2 Bft) S-SO 160 0 min
13.11.2018 02:50 9,9 C 32,4 C 10,8 C 88 % 99 % 1016,8 hPa 0,0 l/m 7,3 km/h (2 Bft) S 170 0 min
13.11.2018 02:55 9,8 C 32,4 C 10,8 C 88 % 99 % 1015,8 hPa 0,0 l/m 9,1 km/h (2 Bft) S-SO 150 0 min
13.11.2018 03:00 9,8 C 32,4 C 10,8 C 88 % 99 % 1015,8 hPa 0,0 l/m 8,5 km/h (2 Bft) S-SO 165 0 min
13.11.2018 03:05 9,8 C 32,4 C 10,8 C 88 % 99 % 1015,8 hPa 0,0 l/m 8,5 km/h (2 Bft) O-SO 110 0 min
13.11.2018 03:10 9,7 C 32,4 C 10,8 C 88 % 99 % 1016,8 hPa 0,0 l/m 9,7 km/h (2 Bft) S-SO 155 0 min
13.11.2018 03:15 9,7 C 32,4 C 10,8 C 88 % 99 % 1016,8 hPa 0,0 l/m 10,3 km/h (2 Bft) SW 225 0 min
13.11.2018 03:20 9,7 C 32,4 C 10,8 C 88 % 99 % 1016,8 hPa 0,0 l/m 8,5 km/h (2 Bft) S 190 0 min
13.11.2018 03:25 9,7 C 32,4 C 10,8 C 88 % 99 % 1016,8 hPa 0,0 l/m 9,1 km/h (2 Bft) S 170 0 min
13.11.2018 03:30 9,7 C 32,4 C 10,8 C 88 % 99 % 1016,8 hPa 0,0 l/m 8,5 km/h (2 Bft) SO 130 0 min
13.11.2018 03:35 9,8 C 32,4 C 10,8 C 88 % 99 % 1016,8 hPa 0,0 l/m 10,9 km/h (2 Bft) S-SO 155 0 min
13.11.2018 03:40 9,8 C 32,4 C 10,8 C 88 % 99 % 1016,8 hPa 0,0 l/m 8,5 km/h (2 Bft) S-SO 155 0 min
13.11.2018 03:45 9,8 C 32,4 C 10,8 C 87 % 99 % 1016,8 hPa 0,0 l/m 10,9 km/h (2 Bft) S 185 0 min
13.11.2018 03:50 9,8 C 32,4 C 10,8 C 87 % 99 % 1016,8 hPa 0,0 l/m 11,5 km/h (2 Bft) S 180 0 min
13.11.2018 03:55 9,8 C 32,4 C 10,8 C 87 % 99 % 1015,8 hPa 0,0 l/m 7,9 km/h (2 Bft) S 170 0 min
13.11.2018 04:00 9,8 C 32,4 C 10,8 C 87 % 99 % 1015,8 hPa 0,0 l/m 10,3 km/h (2 Bft) S 185 0 min
13.11.2018 04:05 9,8 C 32,4 C 10,8 C 86 % 99 % 1015,8 hPa 0,0 l/m 6,7 km/h (2 Bft) S 185 0 min
13.11.2018 04:10 9,8 C 32,4 C 10,8 C 86 % 99 % 1015,8 hPa 0,0 l/m 9,7 km/h (2 Bft) S-SO 150 0 min
13.11.2018 04:15 9,8 C 32,4 C 10,8 C 86 % 99 % 1015,8 hPa 0,0 l/m 10,3 km/h (2 Bft) SO 145 0 min
13.11.2018 04:20 9,8 C 32,4 C 10,8 C 86 % 99 % 1015,8 hPa 0,0 l/m 10,3 km/h (2 Bft) S 175 0 min
13.11.2018 04:25 9,8 C 32,4 C 10,8 C 86 % 99 % 1015,8 hPa 0,0 l/m 8,5 km/h (2 Bft) S-SW 195 0 min
13.11.2018 04:30 9,8 C 32,4 C 10,8 C 86 % 99 % 1015,8 hPa 0,0 l/m 9,1 km/h (2 Bft) SO 130 0 min
13.11.2018 04:35 9,9 C 32,4 C 10,8 C 86 % 99 % 1015,8 hPa 0,0 l/m 7,3 km/h (2 Bft) S-SW 205 0 min
13.11.2018 04:40 10,0 C 32,4 C 10,8 C 85 % 99 % 1016,8 hPa 0,0 l/m 12,1 km/h (2 Bft) SW 215 0 min
13.11.2018 04:45 10,1 C 32,4 C 10,8 C 85 % 99 % 1016,8 hPa 0,0 l/m 15,1 km/h (3 Bft) S 180 0 min
13.11.2018 04:50 10,1 C 32,4 C 10,8 C 84 % 99 % 1016,8 hPa 0,0 l/m 9,7 km/h (2 Bft) S 185 0 min
13.11.2018 04:55 10,1 C 32,4 C 10,8 C 84 % 99 % 1015,8 hPa 0,0 l/m 11,5 km/h (2 Bft) SW 220 0 min
13.11.2018 05:00 10,2 C 32,4 C 10,8 C 84 % 99 % 1015,8 hPa 0,0 l/m 10,3 km/h (2 Bft) O-SO 115 0 min
13.11.2018 05:05 10,2 C 32,4 C 10,8 C 83 % 99 % 1015,8 hPa 0,0 l/m 11,5 km/h (2 Bft) S 170 0 min
13.11.2018 05:10 10,2 C 32,4 C 10,8 C 83 % 99 % 1016,8 hPa 0,0 l/m 14,5 km/h (3 Bft) S-SW 195 0 min
13.11.2018 05:15 10,2 C 32,4 C 10,8 C 83 % 99 % 1016,8 hPa 0,0 l/m 10,9 km/h (2 Bft) S 190 0 min
13.11.2018 05:20 10,1 C 32,4 C 10,8 C 84 % 99 % 1016,8 hPa 0,0 l/m 8,5 km/h (2 Bft) S-SO 160 0 min
13.11.2018 05:25 10,1 C 32,4 C 10,8 C 84 % 99 % 1016,8 hPa 0,0 l/m 10,3 km/h (2 Bft) SW 235 0 min
13.11.2018 05:30 10,1 C 32,4 C 10,8 C 84 % 99 % 1016,8 hPa 0,0 l/m 8,5 km/h (2 Bft) SW 220 0 min
13.11.2018 05:35 10,1 C 32,4 C 10,8 C 84 % 99 % 1016,8 hPa 0,0 l/m 10,9 km/h (2 Bft) S-SW 200 0 min
13.11.2018 05:40 10,1 C 32,4 C 10,8 C 84 % 99 % 1016,8 hPa 0,0 l/m 12,1 km/h (2 Bft) S 180 0 min
13.11.2018 05:45 10,1 C 32,4 C 10,8 C 84 % 99 % 1016,8 hPa 0,0 l/m 8,5 km/h (2 Bft) SW 215 0 min
13.11.2018 05:50 10,1 C 32,4 C 10,8 C 84 % 99 % 1016,8 hPa 0,0 l/m 13,3 km/h (3 Bft) S-SO 150 0 min
13.11.2018 05:55 10,1 C 32,4 C 10,8 C 84 % 99 % 1016,8 hPa 0,0 l/m 12,1 km/h (2 Bft) S-SO 165 0 min
13.11.2018 06:00 10,1 C 32,4 C 10,8 C 83 % 99 % 1016,8 hPa 0,0 l/m 13,3 km/h (3 Bft) S-SO 165 0 min
13.11.2018 06:05 10,1 C 32,4 C 10,8 C 83 % 99 % 1016,8 hPa 0,0 l/m 12,7 km/h (3 Bft) S-SO 155 0 min
13.11.2018 06:10 10,1 C 32,4 C 10,8 C 83 % 99 % 1016,8 hPa 0,0 l/m 10,3 km/h (2 Bft) S 180 0 min
13.11.2018 06:15 10,0 C 32,4 C 10,8 C 83 % 99 % 1016,8 hPa 0,0 l/m 10,3 km/h (2 Bft) S-SW 200 0 min
13.11.2018 06:20 10,1 C 32,4 C 10,8 C 83 % 99 % 1016,8 hPa 0,0 l/m 13,9 km/h (3 Bft) S-SO 160 0 min
13.11.2018 06:25 10,1 C 32,4 C 10,8 C 82 % 99 % 1016,8 hPa 0,0 l/m 14,5 km/h (3 Bft) S-SW 205 0 min
13.11.2018 06:30 10,1 C 32,4 C 10,8 C 82 % 99 % 1016,8 hPa 0,0 l/m 10,9 km/h (2 Bft) S-SO 155 0 min
13.11.2018 06:35 10,1 C 32,4 C 10,8 C 82 % 99 % 1016,8 hPa 0,0 l/m 9,7 km/h (2 Bft) S-SO 155 0 min
13.11.2018 06:40 10,0 C 32,4 C 10,8 C 82 % 99 % 1017,8 hPa 0,0 l/m 10,9 km/h (2 Bft) S-SO 155 0 min
13.11.2018 06:45 10,0 C 32,4 C 10,8 C 82 % 99 % 1017,8 hPa 0,0 l/m 9,7 km/h (2 Bft) S-SO 150 0 min
13.11.2018 06:50 10,0 C 32,4 C 10,8 C 82 % 99 % 1017,8 hPa 0,0 l/m 9,1 km/h (2 Bft) S-SO 150 0 min
13.11.2018 06:55 10,0 C 32,4 C 10,8 C 82 % 99 % 1017,8 hPa 0,0 l/m 9,1 km/h (2 Bft) S 170 0 min
13.11.2018 07:00 10,0 C 32,4 C 10,8 C 82 % 99 % 1017,8 hPa 0,0 l/m 10,9 km/h (2 Bft) S-SO 165 0 min
13.11.2018 07:05 10,0 C 32,4 C 10,8 C 82 % 99 % 1017,8 hPa 0,0 l/m 12,1 km/h (2 Bft) S-SO 165 0 min
13.11.2018 07:10 9,9 C 32,4 C 10,8 C 82 % 99 % 1017,8 hPa 0,0 l/m 12,1 km/h (2 Bft) S 190 0 min
13.11.2018 07:15 9,9 C 32,4 C 10,8 C 82 % 99 % 1017,8 hPa 0,0 l/m 9,7 km/h (2 Bft) S-SO 160 0 min
13.11.2018 07:20 9,9 C 32,4 C 10,8 C 82 % 99 % 1017,8 hPa 0,0 l/m 11,5 km/h (2 Bft) S 180 0 min
13.11.2018 07:25 9,8 C 32,4 C 10,8 C 82 % 99 % 1017,8 hPa 0,0 l/m 10,3 km/h (2 Bft) SO 140 0 min
13.11.2018 07:30 9,8 C 32,4 C 10,8 C 82 % 99 % 1017,8 hPa 0,0 l/m 9,1 km/h (2 Bft) S-SO 150 0 min
13.11.2018 07:35 9,8 C 32,4 C 10,8 C 82 % 99 % 1017,8 hPa 0,0 l/m 10,9 km/h (2 Bft) S-SW 195 0 min
13.11.2018 07:40 9,9 C 32,4 C 10,8 C 82 % 99 % 1017,8 hPa 0,0 l/m 10,3 km/h (2 Bft) S 180 0 min
13.11.2018 07:45 10,0 C 32,4 C 10,8 C 82 % 99 % 1017,8 hPa 0,0 l/m 13,3 km/h (3 Bft) S 180 0 min
13.11.2018 07:50 10,0 C 32,4 C 10,8 C 81 % 99 % 1017,8 hPa 0,0 l/m 14,5 km/h (3 Bft) S-SW 200 0 min
13.11.2018 07:55 10,1 C 32,4 C 10,8 C 81 % 99 % 1018,8 hPa 0,0 l/m 14,5 km/h (3 Bft) S 170 0 min
13.11.2018 08:00 10,3 C 32,4 C 10,8 C 81 % 99 % 1018,8 hPa 0,0 l/m 13,3 km/h (3 Bft) S 185 0 min
13.11.2018 08:05 10,3 C 32,4 C 10,8 C 81 % 99 % 1018,8 hPa 0,0 l/m 10,9 km/h (2 Bft) SW 220 0 min
13.11.2018 08:10 10,4 C 32,4 C 10,8 C 81 % 99 % 1018,8 hPa 0,0 l/m 25,4 km/h (4 Bft) S-SW 205 0 min
13.11.2018 08:15 10,4 C 32,4 C 10,8 C 81 % 99 % 1018,8 hPa 0,0 l/m 21,8 km/h (4 Bft) S-SW 210 0 min
13.11.2018 08:20 10,5 C 32,4 C 10,8 C 81 % 99 % 1018,8 hPa 0,0 l/m 24,2 km/h (4 Bft) S-SW 210 0 min
13.11.2018 08:25 10,5 C 32,4 C 10,8 C 81 % 99 % 1019,8 hPa 0,0 l/m 21,8 km/h (4 Bft) W-SW 245 0 min
13.11.2018 08:30 10,5 C 32,4 C 10,8 C 81 % 99 % 1019,8 hPa 0,0 l/m 21,8 km/h (4 Bft) SW 230 0 min
13.11.2018 08:35 10,6 C 32,4 C 10,8 C 81 % 99 % 1019,8 hPa 0,0 l/m 21,8 km/h (4 Bft) W-SW 250 0 min
13.11.2018 08:40 10,7 C 32,4 C 10,8 C 81 % 99 % 1018,8 hPa 0,0 l/m 23,6 km/h (4 Bft) SW 220 0 min
13.11.2018 08:45 10,8 C 32,4 C 10,8 C 80 % 99 % 1018,8 hPa 0,0 l/m 26,7 km/h (4 Bft) SW 225 0 min
13.11.2018 08:50 10,7 C 32,4 C 10,8 C 80 % 99 % 1018,8 hPa 0,0 l/m 28,6 km/h (5 Bft) S-SW 205 0 min
13.11.2018 08:55 10,7 C 32,4 C 10,8 C 81 % 99 % 1018,8 hPa 0,0 l/m 19,4 km/h (3 Bft) SW 235 0 min
13.11.2018 09:00 10,7 C 32,4 C 10,8 C 81 % 99 % 1018,8 hPa 0,0 l/m 20,6 km/h (4 Bft) SW 215 0 min
13.11.2018 09:05 10,6 C 32,4 C 10,8 C 81 % 99 % 1018,8 hPa 0,0 l/m 15,7 km/h (3 Bft) SW 225 0 min
13.11.2018 09:10 10,6 C 32,4 C 10,8 C 81 % 99 % 1019,8 hPa 0,0 l/m 14,5 km/h (3 Bft) S-SW 195 0 min
13.11.2018 09:15 10,7 C 32,4 C 10,8 C 81 % 99 % 1019,8 hPa 0,0 l/m 21,2 km/h (4 Bft) S-SW 205 0 min
13.11.2018 09:20 10,9 C 32,4 C 10,8 C 81 % 99 % 1019,8 hPa 0,0 l/m 20,6 km/h (4 Bft) W-SW 250 0 min
13.11.2018 09:25 11,1 C 32,4 C 10,8 C 80 % 99 % 1018,8 hPa 0,0 l/m 16,9 km/h (3 Bft) SW 225 6 min
13.11.2018 09:30 11,2 C 32,4 C 10,8 C 80 % 99 % 1018,8 hPa 0,0 l/m 26,7 km/h (4 Bft) SW 225 5 min
13.11.2018 09:35 11,4 C 32,4 C 10,8 C 79 % 99 % 1018,8 hPa 0,0 l/m 27,1 km/h (5 Bft) SW 225 2 min
13.11.2018 09:40 11,5 C 32,4 C 10,8 C 79 % 99 % 1019,8 hPa 0,0 l/m 16,9 km/h (3 Bft) SW 220 1 min
13.11.2018 09:45 11,5 C 32,4 C 10,8 C 79 % 99 % 1019,8 hPa 0,0 l/m 18,8 km/h (3 Bft) W-NW 290 0 min
13.11.2018 09:50 11,5 C 32,4 C 10,8 C 78 % 99 % 1019,8 hPa 0,0 l/m 25,4 km/h (4 Bft) W-SW 250 0 min
13.11.2018 09:55 11,7 C 32,4 C 10,8 C 78 % 99 % 1019,8 hPa 0,0 l/m 18,2 km/h (3 Bft) SW 225 2 min
13.11.2018 10:00 11,9 C 32,4 C 10,8 C 77 % 99 % 1019,8 hPa 0,0 l/m 24,8 km/h (4 Bft) SW 220 2 min
13.11.2018 10:05 11,9 C 32,4 C 10,8 C 78 % 99 % 1019,8 hPa 0,0 l/m 22,4 km/h (4 Bft) SW 230 0 min
13.11.2018 10:10 11,8 C 32,4 C 10,8 C 77 % 99 % 1019,8 hPa 0,0 l/m 27,4 km/h (5 Bft) SW 220 0 min
13.11.2018 10:15 11,8 C 32,4 C 10,8 C 77 % 99 % 1019,8 hPa 0,0 l/m 25,4 km/h (4 Bft) S-SW 195 0 min
13.11.2018 10:20 11,8 C 32,4 C 10,8 C 77 % 99 % 1019,8 hPa 0,0 l/m 27,1 km/h (5 Bft) W-SW 245 0 min
13.11.2018 10:25 11,8 C 32,4 C 10,8 C 76 % 99 % 1019,8 hPa 0,0 l/m 28,6 km/h (5 Bft) S 185 1 min
13.11.2018 10:30 11,9 C 32,4 C 10,8 C 77 % 99 % 1019,8 hPa 0,0 l/m 24,8 km/h (4 Bft) S-SW 210 1 min
13.11.2018 10:35 11,9 C 32,4 C 10,8 C 76 % 99 % 1019,8 hPa 0,0 l/m 29,4 km/h (5 Bft) S-SW 200 0 min
13.11.2018 10:40 11,9 C 32,4 C 10,8 C 76 % 99 % 1019,8 hPa 0,0 l/m 27,1 km/h (5 Bft) W-SW 245 0 min
13.11.2018 10:45 11,9 C 32,4 C 10,8 C 76 % 99 % 1019,8 hPa 0,0 l/m 29,8 km/h (5 Bft) W-SW 245 0 min
13.11.2018 10:50 12,1 C 32,4 C 10,8 C 75 % 99 % 1019,8 hPa 0,0 l/m 28,2 km/h (5 Bft) SW 215 2 min
13.11.2018 10:55 12,1 C 32,4 C 10,8 C 75 % 99 % 1019,8 hPa 0,0 l/m 26,3 km/h (4 Bft) S-SW 200 0 min
13.11.2018 11:00 12,2 C 32,4 C 10,8 C 75 % 99 % 1019,8 hPa 0,0 l/m 24,8 km/h (4 Bft) SW 230 0 min
13.11.2018 11:05 12,4 C 32,4 C 10,8 C 75 % 99 % 1019,8 hPa 0,0 l/m 24,2 km/h (4 Bft) W-SW 240 4 min
13.11.2018 11:10 12,5 C 32,4 C 10,8 C 74 % 99 % 1019,8 hPa 0,0 l/m 27,4 km/h (5 Bft) S-SW 195 0 min
13.11.2018 11:15 12,4 C 32,4 C 10,8 C 73 % 99 % 1019,8 hPa 0,0 l/m 31,3 km/h (5 Bft) SW 235 0 min
13.11.2018 11:20 12,4 C 32,4 C 10,8 C 73 % 99 % 1019,8 hPa 0,0 l/m 30,5 km/h (5 Bft) O-NO 70 0 min
13.11.2018 11:25 12,4 C 32,4 C 10,8 C 73 % 99 % 1020,8 hPa 0,0 l/m 32,1 km/h (5 Bft) W 260 0 min
13.11.2018 11:30 12,3 C 32,4 C 10,8 C 73 % 99 % 1020,8 hPa 0,0 l/m 28,6 km/h (5 Bft) SW 225 0 min
13.11.2018 11:35 12,3 C 32,4 C 10,8 C 73 % 99 % 1020,8 hPa 0,0 l/m 27,8 km/h (5 Bft) W-SW 240 0 min
13.11.2018 11:40 12,4 C 32,4 C 10,8 C 72 % 99 % 1020,8 hPa 0,0 l/m 27,1 km/h (5 Bft) W-SW 240 0 min
13.11.2018 11:45 12,4 C 32,4 C 10,8 C 71 % 99 % 1020,8 hPa 0,0 l/m 31,7 km/h (5 Bft) W-SW 245 0 min
13.11.2018 11:50 12,4 C 32,4 C 10,8 C 71 % 99 % 1020,8 hPa 0,0 l/m 28,2 km/h (5 Bft) W-SW 255 0 min
13.11.2018 11:55 12,6 C 32,4 C 10,8 C 71 % 99 % 1019,8 hPa 0,0 l/m 28,2 km/h (5 Bft) W 280 2 min
13.11.2018 12:00 12,8 C 32,4 C 10,8 C 71 % 99 % 1019,8 hPa 0,0 l/m 25,4 km/h (4 Bft) SW 225 1 min
13.11.2018 12:05 12,8 C 32,4 C 10,8 C 69 % 99 % 1019,8 hPa 0,0 l/m 31,7 km/h (5 Bft) W-SW 245 0 min
13.11.2018 12:10 12,8 C 32,4 C 10,8 C 70 % 99 % 1019,8 hPa 0,0 l/m 29,8 km/h (5 Bft) SW 215 0 min
13.11.2018 12:15 12,9 C 32,4 C 10,8 C 70 % 99 % 1019,8 hPa 0,0 l/m 34,4 km/h (5 Bft) W 260 0 min
13.11.2018 12:20 12,8 C 32,4 C 10,8 C 70 % 99 % 1019,8 hPa 0,0 l/m 30,2 km/h (5 Bft) SW 230 0 min
13.11.2018 12:25 12,7 C 32,4 C 10,8 C 70 % 99 % 1020,8 hPa 0,0 l/m 27,1 km/h (5 Bft) NO 35 0 min
13.11.2018 12:30 12,7 C 32,4 C 10,8 C 70 % 99 % 1020,8 hPa 0,0 l/m 29,8 km/h (5 Bft) S-SW 205 0 min
13.11.2018 12:35 12,7 C 32,4 C 10,8 C 70 % 99 % 1020,8 hPa 0,0 l/m 27,8 km/h (5 Bft) N-NW 340 0 min
13.11.2018 12:40 12,7 C 32,4 C 10,8 C 70 % 99 % 1019,8 hPa 0,0 l/m 29,8 km/h (5 Bft) NW 320 0 min
13.11.2018 12:45 12,7 C 32,4 C 10,8 C 69 % 99 % 1019,8 hPa 0,0 l/m 26,0 km/h (4 Bft) SW 235 0 min
13.11.2018 12:50 12,8 C 32,4 C 10,8 C 69 % 99 % 1019,8 hPa 0,0 l/m 28,6 km/h (5 Bft) S-SW 200 0 min
13.11.2018 12:55 12,7 C 32,4 C 10,8 C 69 % 99 % 1020,8 hPa 0,0 l/m 21,8 km/h (4 Bft) SW 220 1 min
13.11.2018 13:00 12,7 C 32,4 C 10,8 C 70 % 99 % 1020,8 hPa 0,0 l/m 27,1 km/h (5 Bft) NW 315 1 min
13.11.2018 13:05 13,0 C 32,4 C 10,8 C 68 % 99 % 1020,8 hPa 0,0 l/m 30,5 km/h (5 Bft) NW 310 0 min
13.11.2018 13:10 13,3 C 32,4 C 10,8 C 67 % 99 % 1021,8 hPa 0,0 l/m 28,6 km/h (5 Bft) W-SW 255 5 min
13.11.2018 13:15 13,5 C 32,4 C 10,8 C 67 % 99 % 1021,8 hPa 0,0 l/m 23,0 km/h (4 Bft) W-SW 255 5 min
13.11.2018 13:20 13,5 C 32,4 C 10,8 C 67 % 99 % 1021,8 hPa 0,0 l/m 27,8 km/h (5 Bft) W-SW 255 6 min
13.11.2018 13:25 13,6 C 32,4 C 10,8 C 66 % 99 % 1021,8 hPa 0,0 l/m 33,3 km/h (5 Bft) W-SW 250 4 min
13.11.2018 13:30 13,5 C 32,4 C 10,8 C 66 % 99 % 1021,8 hPa 0,0 l/m 29,8 km/h (5 Bft) SW 235 5 min
13.11.2018 13:35 13,5 C 32,4 C 10,8 C 66 % 99 % 1021,8 hPa 0,0 l/m 34,4 km/h (5 Bft) SW 225 3 min
13.11.2018 13:40 13,4 C 32,4 C 10,8 C 66 % 99 % 1020,8 hPa 0,0 l/m 26,7 km/h (4 Bft) W-NW 300 0 min
13.11.2018 13:45 13,3 C 32,4 C 10,8 C 66 % 99 % 1020,8 hPa 0,0 l/m 23,6 km/h (4 Bft) SW 225 0 min
13.11.2018 13:50 13,1 C 32,4 C 10,8 C 68 % 99 % 1020,8 hPa 0,0 l/m 20,0 km/h (4 Bft) NW 320 0 min
13.11.2018 13:55 13,0 C 32,4 C 10,8 C 68 % 99 % 1020,8 hPa 0,0 l/m 22,4 km/h (4 Bft) W-NW 290 0 min
13.11.2018 14:00 13,3 C 32,4 C 10,8 C 68 % 99 % 1020,8 hPa 0,0 l/m 16,9 km/h (3 Bft) W-NW 285 3 min
13.11.2018 14:05 13,5 C 32,4 C 10,8 C 67 % 99 % 1020,8 hPa 0,0 l/m 21,2 km/h (4 Bft) SO 135 1 min
13.11.2018 14:10 13,7 C 32,4 C 10,8 C 67 % 99 % 1020,8 hPa 0,0 l/m 17,6 km/h (3 Bft) NW 325 5 min
13.11.2018 14:15 13,6 C 32,4 C 10,8 C 67 % 99 % 1020,8 hPa 0,0 l/m 26,3 km/h (4 Bft) W-NW 295 0 min
13.11.2018 14:20 13,1 C 32,4 C 10,8 C 67 % 99 % 1020,8 hPa 0,0 l/m 23,6 km/h (4 Bft) N-NO 15 0 min
13.11.2018 14:25 12,8 C 32,4 C 10,8 C 67 % 99 % 1021,8 hPa 0,0 l/m 20,6 km/h (4 Bft) SW 225 0 min
13.11.2018 14:30 12,8 C 32,4 C 10,8 C 67 % 99 % 1021,8 hPa 0,0 l/m 29,8 km/h (5 Bft) S 175 0 min
13.11.2018 14:35 12,8 C 32,4 C 10,8 C 67 % 99 % 1021,8 hPa 0,0 l/m 23,0 km/h (4 Bft) SW 230 0 min
13.11.2018 14:40 12,9 C 32,4 C 10,8 C 67 % 99 % 1021,8 hPa 0,0 l/m 23,0 km/h (4 Bft) SW 220 0 min
13.11.2018 14:45 12,9 C 32,4 C 10,8 C 67 % 99 % 1021,8 hPa 0,0 l/m 26,3 km/h (4 Bft) W 275 1 min
13.11.2018 14:50 13,1 C 32,4 C 10,8 C 66 % 99 % 1021,8 hPa 0,0 l/m 24,8 km/h (4 Bft) SW 235 2 min
13.11.2018 14:55 13,0 C 32,4 C 10,8 C 66 % 99 % 1021,8 hPa 0,0 l/m 28,6 km/h (5 Bft) SW 225 0 min
13.11.2018 15:00 12,7 C 32,4 C 10,8 C 66 % 99 % 1021,8 hPa 0,0 l/m 23,6 km/h (4 Bft) S-SW 205 0 min
13.11.2018 15:05 12,6 C 32,4 C 10,8 C 67 % 99 % 1021,8 hPa 0,0 l/m 23,6 km/h (4 Bft) SW 215 0 min
13.11.2018 15:10 12,6 C 32,4 C 10,8 C 68 % 99 % 1022,8 hPa 0,0 l/m 20,6 km/h (4 Bft) W 260 0 min
13.11.2018 15:15 12,9 C 32,4 C 10,8 C 66 % 99 % 1022,8 hPa 0,0 l/m 24,2 km/h (4 Bft) W-NW 285 5 min
13.11.2018 15:20 12,9 C 32,4 C 10,8 C 66 % 99 % 1022,8 hPa 0,0 l/m 30,9 km/h (5 Bft) W-SW 245 2 min
13.11.2018 15:25 12,6 C 32,4 C 10,8 C 67 % 99 % 1021,8 hPa 0,0 l/m 18,2 km/h (3 Bft) N-NO 20 0 min
13.11.2018 15:30 12,9 C 32,4 C 10,8 C 67 % 99 % 1021,8 hPa 0,0 l/m 19,4 km/h (3 Bft) W 270 3 min
13.11.2018 15:35 13,0 C 32,4 C 10,8 C 67 % 99 % 1021,8 hPa 0,0 l/m 24,8 km/h (4 Bft) SW 235 0 min
13.11.2018 15:40 13,0 C 32,4 C 10,8 C 66 % 99 % 1021,8 hPa 0,0 l/m 20,0 km/h (4 Bft) N-NW 340 0 min
13.11.2018 15:45 13,0 C 32,4 C 10,8 C 67 % 99 % 1021,8 hPa 0,0 l/m 20,0 km/h (4 Bft) NW 305 0 min
13.11.2018 15:50 12,9 C 32,4 C 10,8 C 67 % 99 % 1021,8 hPa 0,0 l/m 26,3 km/h (4 Bft) SW 230 0 min
13.11.2018 15:55 12,5 C 32,4 C 10,8 C 68 % 99 % 1022,8 hPa 0,0 l/m 19,4 km/h (3 Bft) SW 230 0 min
13.11.2018 16:00 12,4 C 32,4 C 10,8 C 68 % 99 % 1022,8 hPa 0,0 l/m 20,6 km/h (4 Bft) S-SW 210 0 min
13.11.2018 16:05 12,3 C 32,4 C 10,8 C 69 % 99 % 1022,8 hPa 0,0 l/m 16,3 km/h (3 Bft) W 270 0 min
13.11.2018 16:10 12,4 C 32,4 C 10,8 C 69 % 99 % 1021,8 hPa 0,0 l/m 15,1 km/h (3 Bft) W-SW 245 0 min
13.11.2018 16:15 12,4 C 32,4 C 10,8 C 69 % 99 % 1021,8 hPa 0,0 l/m 13,3 km/h (3 Bft) W-SW 245 0 min
13.11.2018 16:20 12,4 C 32,4 C 10,8 C 69 % 99 % 1021,8 hPa 0,0 l/m 15,7 km/h (3 Bft) SW 230 0 min
13.11.2018 16:25 12,2 C 32,4 C 10,8 C 70 % 99 % 1022,8 hPa 0,0 l/m 13,3 km/h (3 Bft) W 265 0 min
13.11.2018 16:30 12,2 C 32,4 C 10,8 C 69 % 99 % 1022,8 hPa 0,0 l/m 13,3 km/h (3 Bft) W 275 0 min
13.11.2018 16:35 12,2 C 32,4 C 10,8 C 69 % 99 % 1022,8 hPa 0,0 l/m 21,2 km/h (4 Bft) SW 225 0 min
13.11.2018 16:40 11,9 C 32,4 C 10,8 C 70 % 99 % 1023,8 hPa 0,0 l/m 15,1 km/h (3 Bft) SW 220 0 min
13.11.2018 16:45 11,8 C 32,4 C 10,8 C 70 % 99 % 1023,8 hPa 0,0 l/m 14,5 km/h (3 Bft) SW 230 0 min
13.11.2018 16:50 11,8 C 32,4 C 10,8 C 70 % 99 % 1023,8 hPa 0,0 l/m 14,5 km/h (3 Bft) SW 235 0 min
13.11.2018 16:55 11,5 C 32,4 C 10,8 C 71 % 99 % 1023,8 hPa 0,0 l/m 14,5 km/h (3 Bft) W-SW 250 0 min
13.11.2018 17:00 11,5 C 32,4 C 10,8 C 71 % 99 % 1023,8 hPa 0,0 l/m 15,1 km/h (3 Bft) W-SW 250 0 min
13.11.2018 17:05 11,4 C 32,4 C 10,8 C 72 % 99 % 1023,8 hPa 0,0 l/m 12,1 km/h (2 Bft) SW 230 0 min
13.11.2018 17:10 11,4 C 32,4 C 10,8 C 72 % 99 % 1023,8 hPa 0,0 l/m 17,6 km/h (3 Bft) SW 225 0 min
13.11.2018 17:15 11,4 C 32,4 C 10,8 C 72 % 99 % 1023,8 hPa 0,0 l/m 17,6 km/h (3 Bft) SW 225 0 min
13.11.2018 17:20 11,2 C 32,4 C 10,8 C 72 % 99 % 1023,8 hPa 0,0 l/m 13,3 km/h (3 Bft) SW 220 0 min
13.11.2018 17:25 11,0 C 32,4 C 10,8 C 73 % 99 % 1024,8 hPa 0,0 l/m 14,5 km/h (3 Bft) S-SW 205 0 min
13.11.2018 17:30 11,0 C 32,4 C 10,8 C 73 % 99 % 1024,8 hPa 0,0 l/m 13,9 km/h (3 Bft) SW 230 0 min
13.11.2018 17:35 11,0 C 32,4 C 10,8 C 73 % 99 % 1024,8 hPa 0,0 l/m 13,3 km/h (3 Bft) SW 230 0 min
13.11.2018 17:40 10,9 C 32,4 C 10,8 C 74 % 99 % 1024,8 hPa 0,0 l/m 15,7 km/h (3 Bft) W 275 0 min
13.11.2018 17:45 10,9 C 32,4 C 10,8 C 74 % 99 % 1024,8 hPa 0,0 l/m 15,7 km/h (3 Bft) W-SW 255 0 min
13.11.2018 17:50 10,8 C 32,4 C 10,8 C 74 % 99 % 1024,8 hPa 0,0 l/m 14,5 km/h (3 Bft) SW 215 0 min
13.11.2018 17:55 10,8 C 32,4 C 10,8 C 74 % 99 % 1024,8 hPa 0,0 l/m 16,9 km/h (3 Bft) SW 225 0 min
13.11.2018 18:00 10,7 C 32,4 C 10,8 C 74 % 99 % 1024,8 hPa 0,0 l/m 14,5 km/h (3 Bft) W 260 0 min
13.11.2018 18:05 10,7 C 32,4 C 10,8 C 75 % 99 % 1024,8 hPa 0,0 l/m 13,3 km/h (3 Bft) W-SW 245 0 min
13.11.2018 18:10 10,6 C 32,4 C 10,8 C 75 % 99 % 1023,8 hPa 0,0 l/m 12,1 km/h (2 Bft) SW 230 0 min
13.11.2018 18:15 10,7 C 32,4 C 10,8 C 75 % 99 % 1023,8 hPa 0,0 l/m 11,5 km/h (2 Bft) S-SW 210 0 min
13.11.2018 18:20 10,7 C 32,4 C 10,8 C 75 % 99 % 1023,8 hPa 0,0 l/m 13,3 km/h (3 Bft) SW 235 0 min
13.11.2018 18:25 10,5 C 32,4 C 10,8 C 76 % 99 % 1025,8 hPa 0,0 l/m 10,9 km/h (2 Bft) SW 230 0 min
13.11.2018 18:30 10,5 C 32,4 C 10,8 C 76 % 99 % 1025,8 hPa 0,0 l/m 12,1 km/h (2 Bft) SW 220 0 min
13.11.2018 18:35 10,6 C 32,4 C 10,8 C 76 % 99 % 1025,8 hPa 0,0 l/m 10,9 km/h (2 Bft) W 265 0 min
13.11.2018 18:40 10,7 C 32,4 C 10,8 C 76 % 99 % 1024,8 hPa 0,0 l/m 11,5 km/h (2 Bft) S-SW 210 0 min
13.11.2018 18:45 10,4 C 32,4 C 10,8 C 76 % 99 % 1024,8 hPa 0,0 l/m 10,3 km/h (2 Bft) S 190 0 min
13.11.2018 18:50 10,4 C 32,4 C 10,8 C 76 % 99 % 1024,8 hPa 0,0 l/m 13,3 km/h (3 Bft) SW 215 0 min
13.11.2018 18:55 10,4 C 32,4 C 10,8 C 77 % 99 % 1024,8 hPa 0,0 l/m 15,7 km/h (3 Bft) S-SW 205 0 min
13.11.2018 19:00 10,5 C 32,4 C 10,8 C 77 % 99 % 1024,8 hPa 0,0 l/m 13,3 km/h (3 Bft) SW 230 0 min
13.11.2018 19:05 10,5 C 32,4 C 10,8 C 76 % 99 % 1024,8 hPa 0,0 l/m 17,6 km/h (3 Bft) SW 230 0 min
13.11.2018 19:10 10,4 C 32,4 C 10,8 C 77 % 99 % 1024,8 hPa 0,0 l/m 9,7 km/h (2 Bft) SW 225 0 min
13.11.2018 19:15 10,4 C 32,4 C 10,8 C 77 % 99 % 1024,8 hPa 0,0 l/m 10,9 km/h (2 Bft) S 190 0 min
13.11.2018 19:20 10,3 C 32,4 C 10,8 C 77 % 99 % 1024,8 hPa 0,0 l/m 8,5 km/h (2 Bft) W-SW 240 0 min
13.11.2018 19:25 10,2 C 32,4 C 10,8 C 78 % 99 % 1024,8 hPa 0,0 l/m 9,7 km/h (2 Bft) SW 220 0 min
13.11.2018 19:30 10,3 C 32,4 C 10,8 C 78 % 99 % 1024,8 hPa 0,0 l/m 14,5 km/h (3 Bft) S 185 0 min
13.11.2018 19:35 10,3 C 32,4 C 10,8 C 78 % 99 % 1024,8 hPa 0,0 l/m 11,5 km/h (2 Bft) W 260 0 min
13.11.2018 19:40 10,3 C 32,4 C 10,8 C 78 % 99 % 1024,8 hPa 0,0 l/m 9,1 km/h (2 Bft) SW 215 0 min
13.11.2018 19:45 10,2 C 32,4 C 10,8 C 78 % 99 % 1024,8 hPa 0,0 l/m 14,5 km/h (3 Bft) SW 225 0 min
13.11.2018 19:50 10,3 C 32,4 C 10,8 C 78 % 99 % 1024,8 hPa 0,0 l/m 15,1 km/h (3 Bft) SO 125 0 min
13.11.2018 19:55 10,1 C 32,4 C 10,8 C 78 % 99 % 1024,8 hPa 0,0 l/m 7,3 km/h (2 Bft) S-SO 155 0 min
13.11.2018 20:00 10,1 C 32,4 C 10,8 C 78 % 99 % 1024,8 hPa 0,0 l/m 10,9 km/h (2 Bft) SW 230 0 min
13.11.2018 20:05 10,1 C 32,4 C 10,8 C 79 % 99 % 1024,8 hPa 0,0 l/m 14,5 km/h (3 Bft) SW 225 0 min
13.11.2018 20:10 10,2 C 32,4 C 10,8 C 78 % 99 % 1024,8 hPa 0,0 l/m 16,9 km/h (3 Bft) S-SW 195 0 min
13.11.2018 20:15 10,3 C 32,4 C 10,8 C 78 % 99 % 1024,8 hPa 0,0 l/m 21,2 km/h (4 Bft) S-SW 200 0 min
13.11.2018 20:20 10,3 C 32,4 C 10,8 C 78 % 99 % 1024,8 hPa 0,0 l/m 14,5 km/h (3 Bft) W-SW 255 0 min
13.11.2018 20:25 10,1 C 32,4 C 10,8 C 78 % 99 % 1025,8 hPa 0,0 l/m 18,2 km/h (3 Bft) W-SW 245 0 min
13.11.2018 20:30 10,0 C 32,4 C 10,8 C 79 % 99 % 1025,8 hPa 0,0 l/m 15,7 km/h (3 Bft) W 275 0 min
13.11.2018 20:35 10,0 C 32,4 C 10,8 C 79 % 99 % 1025,8 hPa 0,0 l/m 13,9 km/h (3 Bft) S-SW 205 0 min
13.11.2018 20:40 10,0 C 32,4 C 10,8 C 79 % 99 % 1025,8 hPa 0,0 l/m 15,1 km/h (3 Bft) W-SW 240 0 min
13.11.2018 20:45 10,0 C 32,4 C 10,8 C 79 % 99 % 1025,8 hPa 0,0 l/m 19,4 km/h (3 Bft) S-SW 205 0 min
13.11.2018 20:50 9,9 C 32,4 C 10,8 C 79 % 99 % 1025,8 hPa 0,0 l/m 13,3 km/h (3 Bft) S 175 0 min
13.11.2018 20:55 9,7 C 32,4 C 10,8 C 80 % 99 % 1025,8 hPa 0,0 l/m 10,9 km/h (2 Bft) SW 215 0 min
13.11.2018 21:00 9,7 C 32,4 C 10,8 C 80 % 99 % 1025,8 hPa 0,0 l/m 9,7 km/h (2 Bft) S-SW 200 0 min
13.11.2018 21:05 9,7 C 32,4 C 10,8 C 80 % 99 % 1025,8 hPa 0,0 l/m 18,8 km/h (3 Bft) S 170 0 min
13.11.2018 21:10 9,7 C 32,4 C 10,8 C 79 % 99 % 1025,8 hPa 0,0 l/m 12,1 km/h (2 Bft) SW 215 0 min
13.11.2018 21:15 9,6 C 32,4 C 10,8 C 80 % 99 % 1025,8 hPa 0,0 l/m 8,5 km/h (2 Bft) S-SW 195 0 min
13.11.2018 21:20 9,6 C 32,4 C 10,8 C 80 % 99 % 1025,8 hPa 0,0 l/m 7,9 km/h (2 Bft) SW 220 0 min
13.11.2018 21:25 9,6 C 32,4 C 10,8 C 80 % 99 % 1024,8 hPa 0,0 l/m 11,5 km/h (2 Bft) S 175 0 min
13.11.2018 21:30 9,7 C 32,4 C 10,8 C 79 % 99 % 1024,8 hPa 0,0 l/m 13,9 km/h (3 Bft) SW 215 0 min
13.11.2018 21:35 9,6 C 32,4 C 10,8 C 80 % 99 % 1024,8 hPa 0,0 l/m 16,3 km/h (3 Bft) S-SW 195 0 min
13.11.2018 21:40 9,5 C 32,4 C 10,8 C 80 % 99 % 1025,8 hPa 0,0 l/m 13,3 km/h (3 Bft) W-SW 240 0 min
13.11.2018 21:45 9,3 C 32,4 C 10,8 C 80 % 99 % 1025,8 hPa 0,0 l/m 11,5 km/h (2 Bft) SW 220 0 min
13.11.2018 21:50 9,3 C 32,4 C 10,8 C 80 % 99 % 1025,8 hPa 0,0 l/m 11,5 km/h (2 Bft) SW 230 0 min
13.11.2018 21:55 9,2 C 32,4 C 10,8 C 80 % 99 % 1026,8 hPa 0,0 l/m 12,7 km/h (3 Bft) S-SW 210 0 min
13.11.2018 22:00 9,3 C 32,4 C 10,8 C 81 % 99 % 1026,8 hPa 0,0 l/m 12,7 km/h (3 Bft) SW 220 0 min
13.11.2018 22:05 9,2 C 32,4 C 10,8 C 81 % 99 % 1026,8 hPa 0,0 l/m 8,5 km/h (2 Bft) SW 220 0 min
13.11.2018 22:10 9,2 C 32,4 C 10,8 C 81 % 99 % 1025,8 hPa 0,0 l/m 10,9 km/h (2 Bft) S-SW 210 0 min
13.11.2018 22:15 9,2 C 32,4 C 10,8 C 81 % 99 % 1025,8 hPa 0,0 l/m 10,3 km/h (2 Bft) S-SW 200 0 min
13.11.2018 22:20 9,2 C 32,4 C 10,8 C 81 % 99 % 1025,8 hPa 0,0 l/m 7,9 km/h (2 Bft) S-SW 210 0 min
13.11.2018 22:25 9,1 C 32,4 C 10,8 C 81 % 99 % 1026,8 hPa 0,0 l/m 7,9 km/h (2 Bft) S-SW 210 0 min
13.11.2018 22:30 9,1 C 32,4 C 10,8 C 81 % 99 % 1026,8 hPa 0,0 l/m 9,7 km/h (2 Bft) SW 215 0 min
13.11.2018 22:35 9,1 C 32,4 C 10,8 C 81 % 99 % 1026,8 hPa 0,0 l/m 12,7 km/h (3 Bft) S 175 0 min
13.11.2018 22:40 9,1 C 32,4 C 10,8 C 81 % 99 % 1026,8 hPa 0,0 l/m 10,3 km/h (2 Bft) S 190 0 min
13.11.2018 22:45 9,0 C 32,4 C 10,8 C 81 % 99 % 1026,8 hPa 0,0 l/m 6,7 km/h (2 Bft) S-SW 200 0 min
13.11.2018 22:50 9,0 C 32,4 C 10,8 C 81 % 99 % 1026,8 hPa 0,0 l/m 9,7 km/h (2 Bft) S 170 0 min
13.11.2018 22:55 8,9 C 32,4 C 10,8 C 81 % 99 % 1026,8 hPa 0,0 l/m 6,7 km/h (2 Bft) S-SO 160 0 min
13.11.2018 23:00 8,7 C 32,4 C 10,8 C 82 % 99 % 1026,9 hPa 0,0 l/m 5,4 km/h (2 Bft) S-SO 150 0 min
13.11.2018 23:05 8,4 C 32,4 C 10,8 C 82 % 99 % 1026,9 hPa 0,0 l/m 6,7 km/h (2 Bft) SO 145 0 min
13.11.2018 23:10 8,2 C 32,4 C 10,8 C 83 % 99 % 1025,9 hPa 0,0 l/m 7,3 km/h (2 Bft) SO 140 0 min
13.11.2018 23:15 8,1 C 32,4 C 10,8 C 83 % 99 % 1025,9 hPa 0,0 l/m 6,1 km/h (2 Bft) SO 140 0 min
13.11.2018 23:20 7,9 C 32,4 C 10,8 C 84 % 99 % 1025,9 hPa 0,0 l/m 4,2 km/h (1 Bft) SO 145 0 min
13.11.2018 23:25 7,9 C 32,4 C 10,8 C 84 % 99 % 1026,9 hPa 0,0 l/m 3,6 km/h (1 Bft) S-SO 155 0 min
13.11.2018 23:30 7,8 C 32,4 C 10,8 C 84 % 99 % 1026,9 hPa 0,0 l/m 6,1 km/h (2 Bft) SO 145 0 min
13.11.2018 23:35 7,8 C 32,4 C 10,8 C 85 % 99 % 1026,9 hPa 0,0 l/m 4,8 km/h (1 Bft) S-SO 160 0 min
13.11.2018 23:40 7,7 C 32,4 C 10,8 C 85 % 99 % 1026,9 hPa 0,0 l/m 6,1 km/h (2 Bft) S-SO 150 0 min
13.11.2018 23:45 7,5 C 32,4 C 10,8 C 85 % 99 % 1026,9 hPa 0,0 l/m 4,8 km/h (1 Bft) SO 140 0 min
13.11.2018 23:50 7,5 C 32,4 C 10,8 C 85 % 99 % 1026,9 hPa 0,0 l/m 6,7 km/h (2 Bft) S-SO 165 0 min
13.11.2018 23:55 7,6 C 32,4 C 10,8 C 85 % 99 % 1025,9 hPa 0,0 l/m 6,1 km/h (2 Bft) S-SO 150 0 min
_ Min-Zeit 23:45 00:00 00:00 13:25 00:00 05:00 - 00:55 - - -
Minimum _ 7,5 C 32,4 C 10,8 C 66 % 99 % 1015,8 hPa - 2,4 km/h (1 Bft) - - -
_ Max-Zeit 14:10 00:00 00:00 00:00 00:00 23:45 00:00 12:15 - - 09:25
Maximum _ 13,7 C 32,4 C 10,8 C 89 % 99 % 1026,9 hPa 0,0 l/m 34,4 km/h
W (5 Bft)
- - 6 min
Durchschnitt _ 10,7 C 32,4 C 10,8 C 79 % 99 % 1020,7 hPa #0,0 l/m 15,4 km/h (3 Bft) SW - #1:21 h